C/2007 W3 (LINEAR) = 2007 WR56
Epoch 2008 May 14.0 TT = JDT 2454600.5  
T 2008 June 2.79974 TT                                  Nakano
q   1.7766217            (2000.0)            P               Q
z  -0.0000699      Peri.  112.62809     -0.28547084     -0.19651383
 +/-0.0000027      Node    73.06894     -0.64926830     -0.68027651
e   1.0001241      Incl.   78.67346     +0.70495182     -0.70612051
From 190 observations 2007 Nov. 29-2008 Sept. 8, mean residual 0".79.
   (1/a)org.= +0.000003, (1/a)fut.= +0.000398 (+/-0.000003), Q= 7.
Residuals in seconds of arc 
2007/                     071219 461  0.2-  0.1+    080506 215  1.7+  0.0   
071129 704  0.5+  0.9+    071219 461  0.2-  0.5+    080506 215  1.9+  0.6-  
071129 704  0.7+  0.3+    071219 461  0.3-  0.1+    080506 215  1.8+  1.0-  
071129 704  0.3+  0.3-    071219 461  0.2-  0.4+    080508 235  0.8+  0.8+  
071129 704  1.0+  0.3+    071219 461  0.1-  0.4+    080509 704  1.2+  1.6-  
071129 704  0.7+  0.9+    071220 704  0.5+  0.0     080509 704  0.4+  0.4+  
071130 130  0.5+  0.4-    071220 704  0.9+  0.6-    080509 704  0.3-  1.2-  
071130 130  0.9+  0.3+    071220 704  1.8+  0.1+    080512 H45  1.8+  0.4+  
071130 130  0.8+  0.9+    071228 704  0.9+  0.9-    080512 H45 (2.2+  0.4-) 
071201 595  0.3+  0.3-    071228 704  0.0   0.2-    080512 H45  1.4+  0.6+  
071201 595  0.2+  0.4-    071228 704  0.4-  0.9-    080512 H45 (2.7+  0.1+) 
071201 H55  0.0   0.0     071228 704  1.0-  0.4-    080512 H45  1.9+  0.2-  
071201 H55  0.0   0.1+    071229 215  0.1-  0.1-    080522 J40 (2.5+  2.3+) 
071201 H55  0.0   0.3+    071229 215  0.2-  0.0     080522 J40 (2.3+  2.2+) 
071201 J95  0.3+  0.2+    071229 215  0.7+  0.2-    080531 367  0.2-  0.4-  
071201 J95  0.4-  0.0     071229 157  0.3-  0.1-    080531 367  0.2+  0.7+  
071201 J95  0.2+  0.1+    071229 130  1.2+  0.6-    080609 900 (3.1+  4.7-) 
071202 704  0.2+  0.6+    071229 130  0.3+  0.3+    080609 900 (7.4-  2.4-) 
071202 704  0.6+  1.4+    071229 130  0.8+  0.0     080613 900  0.1-  1.0-  
071202 704  0.1+  1.0+    071229 130  0.3-  0.8-    080613 900  0.9-  1.1-  
071202 704  0.4+  1.0+    071231 355  0.1+  0.7-    080619 J47  0.1+  0.1+  
071202 D35  0.1-  0.0     071231 355  0.2-  0.4+    080619 J47  0.0   0.0   
071202 D35  0.0   1.0+    071231 355  0.4+  0.5+    080619 J47  0.3-  0.5+  
071202 D35  0.3+  0.3+    071231 349  0.8+  0.9-    080620 213  0.4+  0.1-  
071202 D35  0.7+  0.6+    071231 349  0.7+  1.0-    080621 213  0.1+  0.5-  
071203 682  0.5-  1.4+    071231 349  0.7+  0.8-    080621 939  0.5+  0.9-  
071203 673  0.7+  0.6+    2008/                     080621 939  0.0   0.9-  
071203 682  0.4-  0.8+    080102 585 (2.1-  1.1-)   080621 J79  0.1+  0.1-  
071203 673  0.7+  0.6+    080102 585  0.4-  1.1+    080621 J79  1.9+  1.3-  
071203 673  0.7+  0.4+    080102 585 (0.1-  3.0+)   080621 J79  1.1-  0.4-  
071203 673 (3.6+  3.3-)   080102 585  1.8+  0.5-    080624 B37  0.4-  0.8-  
071203 701  0.2+  0.2+    080102 585 (3.9+  2.5+)   080624 B37  0.3+  1.7-  
071203 701  0.7+  0.2+    080102 585 (4.1+  2.6+)   080624 B37  1.0-  0.5-  
071203 701  0.3+  0.2+    080102 585  1.1-  0.9-    080624 B37  0.5+  1.0-  
071203 701  0.3+  0.2+    080102 585  1.0-  1.4+    080624 B37  0.4-  1.0-  
071203 734  0.0   0.5+    080103 585 (0.4+  2.9-)   080624 B37  0.8-  1.4-  
071203 734  0.3+  0.4+    080103 585  1.3+  0.6-    080626 204  0.7-  0.0   
071203 734  0.4+  0.4+    080106 046  0.1-  0.9-    080626 204  0.7-  0.1-  
071203 734  0.7+  0.2+    080106 046  0.0   0.9-    080628 J52  0.3+  0.2-  
071203 734  0.5+  0.1+    080106 046  0.6+  0.2-    080628 J52  0.9+  0.8-  
071203 H06  0.5+  1.5+    080106 046  0.6+  0.0     080628 J52  1.2+  1.2-  
071203 H06  0.4-  1.3-    080106 046  0.0   0.0     080629 442  0.2-  0.4+  
071203 104  0.1-  0.1+    080106 046  0.4-  0.4-    080709 J97  0.5+  1.9-  
071203 104  0.2-  0.0     080106 046  0.2+  0.3-    080709 J97  0.3+  1.7-  
071203 104  0.6-  0.4-    080106 046  0.1+  0.2-    080709 J97  1.0-  0.7-  
071203 104  0.2-  0.4+    080110 B30  1.5+  1.7-    080712 900  1.7-  0.2+  
071204 349  0.6+  0.3+    080110 B30 (2.2-  1.1+)   080712 900  1.8-  0.1-  
071204 349  0.6+  0.4+    080112 585  0.9+  1.5+    080715 235  0.1-  1.1-  
071204 349  0.5+  0.5+    080112 585  1.2+  0.7+    080719 204  0.8-  0.1-  
071204 213  1.4+  1.3+    080112 585  0.8+  1.5-    080719 204  1.6+  0.2-  
071204 213  0.8+  0.9+    080112 585  1.1+  0.6-    080724 900  0.7+  1.0+  
071204 213  0.2-  0.4+    080112 585 (1.7+  2.8-)   080724 900 (2.6+  1.2-) 
071204 561  0.2-  0.5+    080112 585  0.9+  1.5-    080803 B37  0.8+  0.2-  
071205 561  0.2+  0.3+    080116 673  0.7+  1.0-    080803 B37  0.7-  0.3-  
071205 561  0.0   1.8+    080116 673  0.2+  1.2-    080803 B37  0.2-  1.2-  
071205 561  0.3+  0.2+    080116 673  0.5+  1.3-    080803 B37  0.7+  0.4-  
071205 561  0.4+  0.2-    080116 673  1.1+  0.8-    080803 215  0.6-  1.4+  
071205 561  0.3+  0.4+    080116 585  0.2+  1.9-    080803 215  0.4+  1.1+  
071205 561  0.1+  0.3+    080116 585  0.6-  0.1-    080803 215  0.1-  1.1+  
071205 561  0.4-  0.9+    080116 585  0.3-  1.7-    080804 204  0.5-  0.4+  
071205 213  0.6+  0.7-    080116 585  0.3-  1.5-    080804 204  0.5+  0.6+  
071205 213  0.8+  0.7-    080116 585 (2.0+  1.0-)   080824 235  0.8+  0.4+  
071205 213  0.8+  0.9-    080202 J46 (2.9+  0.1-)   080828 A77  0.9+  1.3+  
071210 213  0.2-  0.4-    080207 A77  0.8-  1.7+    080828 A77 (1.5+  2.4+) 
071210 213  0.2-  0.2-    080207 A77 (2.7+  0.5-)   080828 A77 (2.4+  2.4+) 
071210 213  0.1-  0.1-    080207 A77  1.1+  1.7-    080828 A77  1.2+  1.7+  
071215 349  0.9-  0.9+    080212 204  0.9+  0.8-    080908 J47 (1.5+  2.2+) 
071215 349  0.6-  0.4+    080212 204  0.9+  0.6-    080908 J47  1.6+  1.6+  
071215 349  1.0-  0.6+    080223 204  0.8+  1.0-    080908 J47 (1.5+  2.6+) 
071216 J46  0.4+  0.7+    080308 349  1.2+  0.6-    080908 J47  0.9+  1.8+  
071216 J46  0.4+  0.6+    080405 349  1.4+  0.7-                            
071219 461  0.2-  0.5+    080423 204  0.9+  1.0-                            

NAKANO
         **** Don't distribute anyone except personal use only ****
                (C) Copyright 2009 OAA/ComputingSection
write mail from CFAD0::NAKANO on 2009-01-06 06:55:26(JST).
 

    C/2007 W3 (LINEAR)

Epoch 2008 May 14.0 TT = JDT 2454600.5  

T 2008 June 2.80231 TT                                  Nakano

q   1.7765812            (2000.0)            P               Q

z  -0.0000640      Peri.  112.63014     -0.28547607     -0.19650279

 +/-0.0000027      Node    73.06903     -0.64929354     -0.68025334

e   1.0001137      Incl.   78.67355     +0.70492646     -0.70614591

From 156 observations 2007 Nov. 29-2008 June 21, mean residual 0".67.

   (1/a)org.= +0.000009, (1/a)fut.= +0.000404 (+/-0.000003), Q= 7.

NAKANO

         **** Don't distribute anyone except personal use only ****

                (C) Copyright 2008 OAA/ComputingSection

write mail from CFAD0::NAKANO on 2008-07-01 07:43:53(JST).

 

    C/2007 W3 (LINEAR) ----------------> Double designated to 2007 WR56

Epoch 2008 May 14.0 TT = JDT 2454600.5  

T 2008 June 2.81558 TT                                  Nakano

q   1.7761842            (2000.0)            P               Q

z  +0.0000653      Peri.  112.64683     -0.28565574     -0.19645692

 +/-0.0000393      Node    73.06414     -0.64943466     -0.68006328

e   0.9998841      Incl.   78.66723     +0.70472365     -0.70634172

From 124 observations 2007 Nov. 29-2008 Feb. 2, mean residual 0".59.

   (1/a)org.= +0.000138, (1/a)fut.= +0.000533 (+/-0.000039), Q= 5.

NAKANO

         **** Don't distribute anyone except personal use only ****

                (C) Copyright 2008 OAA/ComputingSection

write mail from CFAD0::NAKANO on 2008-02-15 03:48:21(JST).

 



◎C/2007 W3の軌道と予報位置



 上尾の門田健一氏から,2007年12月4日の観測が報告されました.氏のCCD全光度

は18.4等でした.



    C/2007 W3 (LINEAR)

T 2008 June 2.75785 TT                                  Nakano

q   1.7847552            (2000.0)            P               Q

                   Peri.  112.33436     -0.28358520     -0.19769140

                   Node    73.10453     -0.64618097     -0.68360741

e   1.0            Incl.   78.71845     +0.70854046     -0.70256602

From 39 observations 2007 Nov. 29-Dec. 4.

 

Date/        TT  R.A.(2000) Decl.     Delta   r     Daily motion  Mag.  Moon Age

              h    h  m       。  ,                      ,  / PA 。  m1      。

2007 Dec.  5 14  05 40.68  +75 24.1   2.139  2.838    33.0 / 319  18.2  111  .15

           6 14  05 34.77  +75 48.6   2.131  2.829    33.0 / 317  18.2  118  .09

           7 14  05 28.44  +76 12.4   2.124  2.820    33.0 / 315  18.1  124  .04

           8 14  05 21.70  +76 35.4   2.117  2.811    33.0 / 313  18.1  128  .01

           9 14  05 14.51  +76 57.3   2.110  2.803    33.0 / 310  18.1  130  .00

          10 14  05 06.87  +77 18.3   2.104  2.794    33.0 / 308  18.1  130  .01

          11 14  04 58.77  +77 38.0   2.097  2.785    32.9 / 305  18.1  128  .03

          12 14  04 50.21  +77 56.6   2.092  2.777    32.8 / 303  18.0  123  .08

          13 14  04 41.19  +78 13.8   2.086  2.768    32.7 / 300  18.0  117  .14

          14 14  04 31.72  +78 29.6   2.081  2.759    32.6 / 297  18.0  110  .22

          15 14  04 21.83  +78 43.9   2.076  2.750    32.5 / 294  18.0  102  .31

          16 14  04 11.54  +78 56.6   2.072  2.742    32.3 / 291  18.0   93  .41

          17 14  04 00.89  +79 07.7   2.068  2.733    32.1 / 288  17.9   84  .52

          18 14  03 49.93  +79 16.9   2.064  2.724    32.0 / 285  17.9   76  .63

          19 14  03 38.72  +79 24.4   2.060  2.716    31.8 / 282  17.9   68  .73

          20 14  03 27.34  +79 30.1   2.057  2.707    31.6 / 278  17.9   61  .83

          21 14  03 15.84  +79 34.0   2.054  2.698    31.3 / 275  17.9   56  .91

          22 14  03 04.31  +79 36.0   2.052  2.690    31.1 / 272  17.9   54  .97

